User: anonymous
Location: Caltech
(34.1382°N, 118.1253°W)
Time: 22:22:33
(UTC-07:00)
Language:

Cosmos 1939 - Orbit

View from above orbital plane
View from above orbital plane
View from above satellite
View from above satellite

Ground track
Ground track

The orbit data is extracted from the following two-line orbital elements,

1 19045U 88032A   14293.14132275  .00698560  23970-3  10840-2 0   190
2 19045 097.2032 005.9170 0004602 271.0377 150.8880 16.04185663460230
Epoch (UTC): 20 October 2014 03:23:30
Eccentricity: 0.0004602
inclination: 97.2032°
perigee height: 260 km
apogee height: 266 km
right ascension of ascending node: 5.9170°
argument of perigee: 271.0377°
revolutions per day: 16.04185663
mean anomaly at epoch: 150.8880°
orbit number at epoch: 46023

The dashed part of the orbit path shows where the satellite is in the earth's shadow,  

DLR